TimeCST,TemperatureF,Dew PointF,Humidity,Sea Level PressureIn,VisibilityMPH,Wind Direction,Wind SpeedMPH,Gust SpeedMPH,PrecipitationIn,Events,Conditions,WindDirDegrees,DateUTC
12:53 AM,50.0,43.0,77,30.09,10.0,South,17.3,-,N/A,,Mostly Cloudy,170,2012-11-19 06:53:00
1:53 AM,50.0,43.0,77,30.07,10.0,South,17.3,23.0,N/A,,Partly Cloudy,170,2012-11-19 07:53:00
2:53 AM,48.9,43.0,80,30.07,10.0,South,12.7,-,N/A,,Partly Cloudy,170,2012-11-19 08:53:00
3:53 AM,48.0,42.1,80,30.07,10.0,South,8.1,-,N/A,,Clear,180,2012-11-19 09:53:00
4:53 AM,48.0,42.1,80,30.08,10.0,South,11.5,-,N/A,,Clear,170,2012-11-19 10:53:00
5:53 AM,46.0,41.0,83,30.08,10.0,South,6.9,-,N/A,,Partly Cloudy,170,2012-11-19 11:53:00
6:53 AM,44.1,39.0,82,30.10,10.0,SSE,4.6,-,N/A,,Scattered Clouds,150,2012-11-19 12:53:00
7:53 AM,43.0,39.9,89,30.12,10.0,SSE,5.8,-,N/A,,Mostly Cloudy,160,2012-11-19 13:53:00
8:53 AM,51.1,43.0,74,30.13,10.0,South,10.4,-,N/A,,Mostly Cloudy,190,2012-11-19 14:53:00
9:53 AM,55.9,44.1,64,30.12,10.0,SSW,9.2,-,N/A,,Scattered Clouds,200,2012-11-19 15:53:00
10:53 AM,60.1,46.0,60,30.14,10.0,SSW,8.1,-,N/A,,Scattered Clouds,210,2012-11-19 16:53:00
11:53 AM,63.0,46.9,56,30.12,10.0,SW,3.5,-,N/A,,Mostly Cloudy,220,2012-11-19 17:53:00
12:53 PM,66.0,48.0,52,30.09,10.0,SW,4.6,-,N/A,,Mostly Cloudy,230,2012-11-19 18:53:00
1:53 PM,69.1,48.0,47,30.08,10.0,Calm,Calm,-,N/A,,Scattered Clouds,0,2012-11-19 19:53:00
2:53 PM,69.1,46.9,45,30.07,10.0,South,6.9,-,N/A,,Scattered Clouds,180,2012-11-19 20:53:00
3:53 PM,69.1,48.0,47,30.08,10.0,South,4.6,-,N/A,,Partly Cloudy,190,2012-11-19 21:53:00
4:53 PM,63.0,48.9,60,30.10,10.0,South,6.9,-,N/A,,Partly Cloudy,170,2012-11-19 22:53:00
5:53 PM,57.0,48.9,74,30.12,10.0,South,5.8,-,N/A,,Partly Cloudy,190,2012-11-19 23:53:00
6:53 PM,53.1,48.9,86,30.14,10.0,South,6.9,-,N/A,,Partly Cloudy,190,2012-11-20 00:53:00
7:53 PM,50.0,46.9,89,30.15,9.0,SW,3.5,-,N/A,,Clear,220,2012-11-20 01:53:00
8:53 PM,48.9,46.0,90,30.15,8.0,Calm,Calm,-,N/A,,Clear,0,2012-11-20 02:53:00
9:53 PM,46.0,43.0,89,30.15,9.0,South,3.5,-,N/A,,Clear,190,2012-11-20 03:53:00
10:53 PM,45.0,44.1,97,30.15,8.0,SSW,3.5,-,N/A,Fog,Patches of Fog,210,2012-11-20 04:53:00
11:48 PM,42.8,42.8,100,30.16,7.0,SW,3.5,-,N/A,Fog,Patches of Fog,220,2012-11-20 05:48:00
11:53 PM,44.1,43.0,96,30.16,7.0,SW,3.5,-,N/A,Fog,Patches of Fog,220,2012-11-20 05:53:00